Content
SEND FEEDBACK

Daily
Averages
Monthly
Summary
United States of America

SANDUSKY, MICHIGAN


Home > North America > United States > Michigan
Elevation: 770 feet     Latitude: 43 25N     Longitude: 082 50W

WEATHER
 
SELECT A DAY
Number of Records: 432,627;   Date Range: 3/27/97 - 9/20/14
 
SHARE

PRINT THIS DATA

[ ← Previous Day ]
WEATHER ALMANAC - JANUARY 3, 2013
[ Next Day → ]
[ °C ]   °F
Weather ElementAverageHighLow
Temperature24.9 °F27.9 °F (8:34 pm)21.6 °F (8:14 am)
Dewpoint19.9 °F23 °F (3:34 pm)16.5 °F (5:34 am)
Humidity81.5 %86 % (1:54 pm)76 % (5:34 am)
Barometer30.03 in30.10 in (12:34 am)29.97 in (12:54 pm)
Wind Speed10.9 mph16.1 mph (11:14 pm)
Wind Gust27.6 mph (11:54 pm)
Weather ElementAverage
Visibility8.6 mi
Wind DirectionWSW (235.5 °)

Weather ElementTotal
Precipitation---
Heating Degree Days40.3 (Base 65)
Averaged from 69 records on January 3, 2013
WEATHER CONDITIONS BREAKOUT
WIND DIRECTION BREAKOUT
WEATHER BY HOUR - JANUARY 3, 2013
[ °C ]   °F
Local TimeTemperatureDewpointHumidityBarometerVisibilityWind DirectionWind SpeedGust SpeedPrecipitationEventsConditions
12:34 AM23.0 °F18.5 °F83 %30.10 in10.0 miSouth (190°)5.8 mphOvercast
12:54 AM23.0 °F18.7 °F84 %30.10 in10.0 miSouth (190°)6.9 mphOvercast
1:14 AM23.5 °F19.0 °F83 %30.10 in10.0 miSSW (200°)5.8 mphOvercast
1:34 AM23.5 °F19.2 °F84 %30.10 in10.0 miSSW (200°)4.6 mphOvercast
1:54 AM23.7 °F19.4 °F84 %30.10 in10.0 miSouth (190°)8.1 mphOvercast
2:14 AM23.7 °F19.4 °F84 %30.10 in10.0 miSSW (200°)6.9 mphOvercast
2:34 AM23.9 °F19.4 °F83 %30.10 in10.0 miSSW (200°)6.9 mphOvercast
2:54 AM23.9 °F19.8 °F84 %30.10 in10.0 miSSW (200°)6.9 mphOvercast
3:14 AM23.9 °F19.8 °F84 %30.09 in10.0 miSSW (200°)6.9 mphOvercast
3:34 AM24.1 °F19.9 °F84 %30.08 in10.0 miSSW (210°)5.8 mphOvercast
3:55 AM24.3 °F20.1 °F84 %30.07 in10.0 miSSW (210°)6.9 mphSnowLight Snow
4:14 AM24.3 °F20.1 °F84 %30.06 in10.0 miSSW (200°)9.2 mphSnowLight Snow
4:34 AM23.9 °F20.1 °F85 %30.05 in10.0 miSW (220°)6.9 mphSnowLight Snow
4:55 AM23.5 °F18.0 °F79 %30.05 in10.0 miSW (220°)10.4 mphOvercast
5:14 AM23.0 °F16.7 °F77 %30.04 in10.0 miSSW (200°)8.1 mphOvercast
5:34 AM23.0 °F16.5 °F76 %30.03 in10.0 miSSW (210°)10.4 mphSnowLight Snow
5:55 AM22.8 °F16.5 °F77 %30.02 in10.0 miSouth (190°)10.4 mphOvercast
6:14 AM22.8 °F16.7 °F77 %30.02 in10.0 miSSW (210°)12.7 mphOvercast
6:34 AM22.8 °F16.7 °F77 %30.02 in10.0 miSSW (210°)11.5 mphSnowLight Snow
6:55 AM22.6 °F17.4 °F80 %30.01 in10.0 miSSW (200°)10.4 mphSnowLight Snow
7:14 AM22.5 °F17.2 °F80 %30.00 in10.0 miSouth (190°)12.7 mphSnowLight Snow
7:34 AM22.1 °F16.5 °F79 %30.00 in10.0 miSSW (200°)11.5 mphSnowLight Snow
7:54 AM21.7 °F16.5 °F80 %30.00 in10.0 miSSW (200°)11.5 mphSnowLight Snow
8:14 AM21.6 °F16.5 °F81 %30.00 in10.0 miSSW (200°)8.1 mphSnowLight Snow
8:34 AM21.7 °F16.7 °F81 %30.00 in10.0 miSSW (210°)6.9 mphSnowLight Snow
8:54 AM21.9 °F16.7 °F80 %30.01 in10.0 miSW (220°)8.1 mphSnowLight Snow
9:14 AM21.7 °F16.7 °F81 %30.01 in3.0 miSW (220°)10.4 mphSnowLight Snow
9:34 AM21.7 °F17.4 °F83 %30.01 in5.0 miSW (230°)11.5 mphSnowLight Snow
9:54 AM21.7 °F17.8 °F85 %30.01 in4.0 miSW (220°)9.2 mphSnowLight Snow
10:14 AM22.3 °F18.5 °F85 %30.01 in4.0 miWSW (240°)9.2 mphSnowLight Snow
10:35 AM22.5 °F18.5 °F85 %30.01 in7.0 miWSW (240°)10.4 mphSnowLight Snow
10:54 AM22.8 °F18.5 °F83 %30.00 in5.0 miWSW (240°)12.7 mph18.4 mphSnowLight Snow
11:35 AM23.0 °F18.3 °F82 %30.00 in10.0 miWSW (240°)15.0 mph20.7 mphOvercast
11:54 AM23.0 °F18.3 °F82 %30.00 in10.0 miWSW (250°)12.7 mph18.4 mphOvercast
12:14 PM23.2 °F18.7 °F83 %29.99 in10.0 miWSW (240°)11.5 mphOvercast
12:34 PM23.7 °F19.2 °F83 %29.98 in5.0 miWSW (250°)12.7 mph17.3 mphSnowLight Snow
12:54 PM23.9 °F19.4 °F83 %29.97 in7.0 miWSW (240°)11.5 mph19.6 mphOvercast
1:15 PM24.4 °F20.1 °F84 %29.97 in7.0 miWSW (250°)15.0 mph20.7 mphOvercast
1:34 PM24.8 °F20.7 °F84 %29.97 in7.0 miWSW (250°)12.7 mphOvercast
1:54 PM25.3 °F21.6 °F86 %29.97 in5.0 miWest (260°)13.8 mph18.4 mphSnowLight Snow
2:15 PM25.7 °F22.1 °F86 %29.97 in3.0 miWest (260°)11.5 mph20.7 mphSnowLight Snow
2:34 PM26.1 °F22.1 °F85 %29.97 in4.0 miWSW (250°)11.5 mph18.4 mphSnowLight Snow
2:54 PM26.2 °F22.5 °F86 %29.97 in5.0 miWest (260°)15.0 mph20.7 mphSnowLight Snow
3:14 PM26.4 °F22.6 °F86 %29.98 in4.0 miWest (260°)12.7 mphSnowLight Snow
3:34 PM26.6 °F23.0 °F86 %29.99 in5.0 miWest (270°)11.5 mphOvercast
3:55 PM27.1 °F23.0 °F84 %30.00 in5.0 miWest (260°)10.4 mph17.3 mphOvercast
4:14 PM27.3 °F22.6 °F83 %30.00 in7.0 miWest (260°)13.8 mph19.6 mphOvercast
4:54 PM27.5 °F22.6 °F82 %30.01 in7.0 miWest (270°)10.4 mph17.3 mphOvercast
5:15 PM27.5 °F22.1 °F80 %30.02 in7.0 miWest (260°)11.5 mph17.3 mphOvercast
5:34 PM27.5 °F22.3 °F81 %30.03 in10.0 miWest (270°)11.5 mphOvercast
5:54 PM27.5 °F22.1 °F80 %30.04 in10.0 miWest (270°)10.4 mph16.1 mphOvercast
6:14 PM27.5 °F22.1 °F80 %30.05 in10.0 miWest (270°)11.5 mphOvercast
6:34 PM27.7 °F22.1 °F80 %30.06 in10.0 miWest (280°)11.5 mph18.4 mphOvercast
6:55 PM27.5 °F21.9 °F80 %30.06 in10.0 miWest (270°)10.4 mphOvercast
7:14 PM27.5 °F21.9 °F80 %30.07 in10.0 miWest (270°)11.5 mphOvercast
7:35 PM27.5 °F21.9 °F80 %30.07 in10.0 miWest (270°)13.8 mph19.6 mphOvercast
7:54 PM27.5 °F21.7 °F79 %30.06 in10.0 miWest (270°)15.0 mph19.6 mphOvercast
8:15 PM27.5 °F21.4 °F78 %30.07 in10.0 miWest (270°)12.7 mph16.1 mphOvercast
8:34 PM27.9 °F21.6 °F77 %30.07 in10.0 miWest (280°)9.2 mph19.6 mphOvercast
8:54 PM27.9 °F21.7 °F78 %30.07 in10.0 miWest (270°)10.4 mph18.4 mphOvercast
9:14 PM27.7 °F21.7 °F78 %30.06 in10.0 miWest (260°)12.7 mphOvercast
9:34 PM27.5 °F21.7 °F79 %30.06 in10.0 miWSW (250°)13.8 mph17.3 mphOvercast
9:55 PM27.5 °F21.9 °F80 %30.05 in10.0 miWSW (250°)13.8 mph17.3 mphOvercast
10:14 PM27.5 °F21.7 °F79 %30.06 in10.0 miWSW (250°)13.8 mph17.3 mphOvercast
10:35 PM27.5 °F21.7 °F79 %30.05 in10.0 miWSW (250°)13.8 mph18.4 mphOvercast
10:54 PM27.5 °F21.7 °F79 %30.05 in10.0 miWSW (250°)15.0 mphOvercast
11:14 PM27.5 °F21.9 °F80 %30.04 in10.0 miWest (260°)16.1 mph21.9 mphOvercast
11:34 PM27.5 °F21.2 °F77 %30.04 in10.0 miWSW (250°)11.5 mphOvercast
11:54 PM27.5 °F21.2 °F77 %30.03 in10.0 miWSW (250°)13.8 mph27.6 mphOvercast
Hourly data recorded from KBAX, located miles away from Sandusky, Michigan







STORIES FROM OUR PARTNERS